CW8328 Weather Reports


time (UTC)temp
F
wind
direction
speed
knots
gust
knots
rain 1hr
in
rain 24hr
in
rain mn
in
humidity
%
barometer
mb
20260506004821 58 194 0.0 0.0 0.00 0.00 0.04 56 1010.5
20260506004346 58 194 0.0 0.0 0.00 0.00 0.04 55 1010.4
20260506003806 58 194 0.0 0.0 0.00 0.00 0.04 52 1009.9
20260506003336 58 194 0.0 0.0 0.00 0.00 0.04 52 1010.0
20260506002817 58 177 0.0 0.0 0.00 0.00 0.04 53 1010.2
20260506002322 58 116 0.0 0.0 0.00 0.00 0.04 54 1010.2
20260506001808 58 115 0.0 0.0 0.00 0.00 0.04 52 1010.1
20260506001309 59 145 0.0 0.0 0.00 0.00 0.04 50 1009.6
20260506000838 59 155 0.0 0.0 0.00 0.00 0.04 50 1009.8
20260506000302 60 38 0.0 0.0 0.00 0.00 0.04 51 1009.9
20260505235845 59 35 0.0 0.9 0.00 0.00 0.04 51 1010.3
20260505235337 59 35 0.0 0.0 0.00 0.00 0.04 50 1010.2
20260505234838 60 36 0.0 0.0 0.00 0.00 0.04 51 1010.2
20260505234303 60 103 0.0 0.0 0.00 0.00 0.04 52 1010.1
20260505233838 60 90 0.0 0.0 0.00 0.00 0.04 52 1010.2
20260505233309 60 85 0.0 0.0 0.00 0.00 0.04 54 1010.3
20260505232845 59 34 0.0 0.9 0.00 0.00 0.04 55 1010.1
20260505232320 58 340 0.0 0.0 0.00 0.00 0.04 56 1009.8
20260505231822 58 219 0.0 0.0 0.00 0.00 0.04 57 1010.2
20260505231318 57 340 0.0 0.0 0.00 0.00 0.04 57 1010.3
20260505230802 59 340 0.0 1.7 0.00 0.00 0.04 55 1010.6
20260505230346 59 14 0.9 4.3 0.00 0.00 0.04 56 1010.5
20260505225820 58 52 0.0 0.9 0.00 0.00 0.04 58 1010.3
20260505225335 59 70 0.0 0.0 0.00 0.00 0.04 58 1010.6
20260505224827 58 67 0.0 0.0 0.00 0.00 0.04 62 1010.5
20260505224308 57 90 0.0 0.0 0.00 0.00 0.04 65 1010.6
20260505223836 57 57 0.0 1.7 0.00 0.00 0.04 66 1010.7
20260505223310 57 152 0.0 0.0 0.00 0.00 0.04 63 1010.6
20260505222826 56 103 0.0 0.0 0.00 0.00 0.03 69 1010.7
20260505222323 55 99 0.0 0.0 0.00 0.00 0.03 70 1011.0
20260505221817 55 161 0.0 0.0 0.00 0.00 0.03 71 1011.1
20260505221324 54 240 0.0 2.6 0.00 0.00 0.03 73 1011.3
20260505220835 53 256 1.7 5.2 0.00 0.00 0.03 78 1011.5
20260505220310 53 213 0.0 0.0 0.00 0.00 0.03 72 1011.4
20260505215839 55 196 0.0 0.9 0.00 0.00 0.02 69 1011.9
20260505215311 57 210 0.9 6.1 0.00 0.00 0.02 61 1011.7
20260505214845 58 225 1.7 7.8 0.00 0.00 0.01 55 1011.5
20260505214327 59 243 0.0 3.5 0.00 0.00 0.01 56 1011.3
20260505213836 60 221 0.0 3.5 0.00 0.00 0.01 53 1011.3
20260505213320 60 253 0.9 4.3 0.00 0.00 0.01 50 1011.2
20260505212847 61 210 0.0 0.0 0.00 0.00 0.01 50 1011.1
20260505212314 61 283 0.0 3.5 0.00 0.00 0.01 51 1011.1
20260505211841 61 266 0.0 0.0 0.00 0.00 0.01 50 1011.1
20260505211340 61 231 0.0 4.3 0.00 0.00 0.01 49 1011.2
20260505210835 61 235 1.7 4.3 0.00 0.00 0.01 50 1011.1
20260505210304 61 268 0.0 0.9 0.00 0.00 0.01 50 1011.1
20260505205807 61 264 0.0 1.7 0.00 0.00 0.01 51 1011.5
20260505205311 62 260 0.0 1.7 0.00 0.00 0.01 49 1011.5
20260505204820 62 258 0.9 4.3 0.00 0.00 0.01 50 1011.5
20260505204320 61 344 0.9 3.5 0.00 0.00 0.01 53 1011.5
20260505203815 59 309 0.0 0.0 0.00 0.00 0.01 54 1011.7
20260505203312 61 296 0.0 0.0 0.00 0.00 0.01 50 1011.9
20260505202806 61 266 0.0 0.9 0.00 0.00 0.01 51 1011.9
20260505202321 61 327 0.9 4.3 0.00 0.00 0.01 52 1011.9
20260505201805 60 38 0.0 0.0 0.00 0.00 0.01 53 1011.8
20260505201312 59 348 0.0 2.6 0.00 0.00 0.01 55 1011.8
20260505200836 59 351 0.0 2.6 0.00 0.00 0.01 57 1011.9
20260505200322 59 329 0.9 3.5 0.00 0.00 0.01 61 1012.2
20260505195805 57 306 0.0 1.7 0.00 0.00 0.01 64 1012.2
20260505195305 57 294 0.0 0.0 0.00 0.00 0.01 61 1012.0
20260505194843 57 292 0.0 0.0 0.00 0.00 0.01 62 1012.2
20260505194314 58 269 1.7 4.3 0.00 0.00 0.01 61 1012.4
20260505193801 58 250 0.0 0.0 0.00 0.00 0.01 66 1012.3
20260505193323 58 236 0.9 3.5 0.00 0.00 0.01 67 1012.3
20260505192837 56 278 0.0 0.0 0.00 0.00 0.01 68 1012.4
20260505192310 56 248 0.0 4.3 0.00 0.00 0.01 66 1012.5
20260505191845 56 242 0.0 1.7 0.00 0.00 0.01 69 1012.5
20260505191313 56 245 0.9 3.5 0.00 0.00 0.01 72 1012.5
20260505190835 55 252 0.0 0.0 0.00 0.00 0.01 78 1012.5
20260505190338 54 268 0.0 0.0 0.00 0.00 0.01 75 1012.6
20260505185803 54 245 0.9 3.5 0.00 0.00 0.01 78 1012.8
20260505185304 53 256 0.0 1.7 0.00 0.00 0.01 77 1013.0
20260505184816 54 265 0.0 0.0 0.00 0.00 0.01 77 1013.0
20260505184327 54 267 0.9 4.3 0.00 0.00 0.00 73 1013.0
20260505183844 54 264 1.7 6.1 0.00 0.00 0.00 68 1012.8
20260505183338 55 257 2.6 5.2 0.00 0.00 0.00 67 1012.9
20260505182843 57 256 0.9 6.1 0.00 0.00 0.00 61 1012.6
20260505182345 58 228 2.6 12.2 0.00 0.00 0.00 54 1012.6
20260505181839 58 241 5.2 9.6 0.00 0.00 0.00 50 1012.4
20260505181339 59 221 0.0 2.6 0.00 0.00 0.00 48 1012.4
20260505180844 59 241 2.6 8.7 0.00 0.00 0.00 48 1012.4
20260505180323 60 231 1.7 6.1 0.00 0.00 0.00 45 1012.4
20260505175824 62 233 0.9 3.5 0.00 0.00 0.00 44 1012.3
20260505175305 62 213 0.9 3.5 0.00 0.00 0.00 44 1012.4
20260505174829 63 223 0.9 4.3 0.00 0.00 0.00 43 1012.4
20260505174326 62 216 0.0 2.6 0.00 0.00 0.00 45 1012.3
20260505173829 60 256 0.0 1.7 0.00 0.00 0.00 47 1012.3
20260505173331 60 226 0.9 2.6 0.00 0.00 0.00 46 1012.3
20260505172801 59 352 0.0 0.0 0.00 0.00 0.00 46 1012.2
20260505172319 60 295 0.0 0.0 0.00 0.00 0.00 45 1012.3
20260505171818 61 304 0.0 0.9 0.00 0.00 0.00 46 1012.4
20260505171331 59 294 0.0 0.0 0.00 0.00 0.00 47 1012.4
20260505170805 59 277 0.0 1.7 0.00 0.00 0.00 48 1012.4
20260505170344 58 302 0.0 0.0 0.00 0.00 0.00 49 1012.6
20260505165805 58 260 0.0 0.0 0.00 0.00 0.00 49 1012.6
20260505165325 57 275 0.0 2.6 0.00 0.00 0.00 51 1012.5
20260505164818 57 350 0.0 0.0 0.00 0.00 0.00 51 1012.4
20260505164344 56 348 0.0 0.0 0.00 0.00 0.00 52 1012.2
20260505163835 56 324 0.0 0.0 0.00 0.00 0.00 53 1012.4
20260505163345 56 335 0.0 1.7 0.00 0.00 0.00 53 1012.5
20260505162843 55 325 0.0 2.6 0.00 0.00 0.00 56 1012.4
20260505162345 54 1 0.0 1.7 0.00 0.00 0.00 56 1012.4
20260505161832 54 1 0.0 1.7 0.00 0.00 0.00 59 1012.5
20260505161319 54 355 0.0 1.7 0.00 0.00 0.00 59 1012.7
20260505160842 54 330 0.0 0.0 0.00 0.00 0.00 61 1012.8
20260505160310 54 346 0.0 0.0 0.00 0.00 0.00 61 1012.8
20260505153346 54 343 0.0 1.7 0.00 0.00 0.00 60 1013.3
20260505152844 54 314 0.9 3.5 0.00 0.00 0.00 61 1013.4
20260505152334 54 344 0.0 5.2 0.00 0.00 0.00 61 1013.5
20260505151806 54 293 1.7 7.0 0.00 0.00 0.00 62 1013.5
20260505151302 53 324 0.9 6.1 0.00 0.00 0.00 63 1013.5
20260505150819 53 340 0.9 6.1 0.00 0.00 0.00 64 1013.5
20260505150335 53 329 0.0 0.0 0.00 0.00 0.00 66 1013.5
20260505140312 54 326 2.6 8.7 0.00 0.00 0.00 54 1013.7
20260505130302 57 246 0.0 0.0 0.00 0.00 0.00 46 1012.8
20260505124812 57 246 0.0 0.9 0.00 0.00 0.00 46 1012.5
20260505124314 57 246 0.0 0.0 0.00 0.00 0.00 45 1012.4
20260505123803 56 246 0.0 0.0 0.00 0.00 0.00 45 1012.7
20260505123312 56 246 0.0 0.0 0.00 0.00 0.00 45 1012.6
20260505122814 56 246 0.0 0.0 0.00 0.00 0.00 44 1012.6
20260505122302 56 246 0.0 0.0 0.00 0.00 0.00 43 1012.7
20260505121820 56 246 0.0 0.0 0.00 0.00 0.00 42 1012.8
20260505121311 56 246 0.0 0.0 0.00 0.00 0.00 42 1012.7
20260505120807 56 246 0.0 0.0 0.00 0.00 0.00 43 1012.8
20260505120342 56 246 0.0 0.0 0.00 0.00 0.00 42 1012.7
20260505115803 56 246 0.0 0.0 0.00 0.00 0.00 42 1012.5
20260505115337 56 246 0.0 0.0 0.00 0.00 0.00 42 1012.5
20260505114838 56 246 0.0 0.0 0.00 0.00 0.00 42 1012.5
20260505114321 56 246 0.0 0.0 0.00 0.00 0.00 42 1012.5
20260505113811 56 246 0.0 0.0 0.00 0.00 0.00 44 1012.2
20260505113335 56 246 0.0 0.0 0.00 0.00 0.00 41 1012.2
20260505112835 56 246 0.0 0.0 0.00 0.00 0.00 40 1012.3
20260505112318 57 246 0.0 0.0 0.00 0.00 0.00 40 1012.1
20260505111826 57 246 0.0 0.0 0.00 0.00 0.00 37 1012.0
20260505111324 57 246 0.0 0.0 0.00 0.00 0.00 37 1012.2
20260505110804 57 246 0.0 0.0 0.00 0.00 0.00 37 1012.3
20260505110346 57 246 0.0 0.0 0.00 0.00 0.00 37 1012.4
20260505101801 58 260 0.0 0.9 0.00 0.00 0.00 36 1012.8
20260505101333 58 261 0.0 0.0 0.00 0.00 0.00 37 1012.6
20260505100837 58 261 0.0 0.0 0.00 0.00 0.00 36 1012.4
20260505100318 58 261 0.0 0.0 0.00 0.00 0.00 36 1012.5
20260505095845 58 261 0.0 0.0 0.00 0.00 0.00 36 1012.2
20260505095308 57 261 0.0 0.0 0.00 0.00 0.00 37 1012.2
20260505094836 57 261 0.0 0.0 0.00 0.00 0.00 39 1012.3
20260505094341 57 261 0.0 0.0 0.00 0.00 0.00 40 1012.4
20260505093845 57 261 0.0 0.0 0.00 0.00 0.00 39 1012.1
20260505093338 57 261 0.0 0.0 0.00 0.00 0.00 37 1012.2
20260505092840 57 261 0.0 0.0 0.00 0.00 0.00 37 1012.2
20260505092312 58 261 0.0 0.0 0.00 0.00 0.00 37 1012.2
20260505091830 58 261 0.0 0.0 0.00 0.00 0.00 36 1012.3
20260505091304 58 261 0.0 0.0 0.00 0.00 0.00 35 1012.2
20260505090841 58 261 0.0 0.0 0.00 0.00 0.00 34 1012.4
20260505090304 59 261 0.0 0.0 0.00 0.00 0.00 34 1012.4
20260505085834 59 261 0.0 0.0 0.00 0.00 0.00 33 1012.6
20260505085328 59 261 0.0 0.0 0.00 0.00 0.00 33 1012.6
20260505084830 59 261 0.0 0.0 0.00 0.00 0.00 33 1012.6
20260505084305 59 261 0.0 0.0 0.00 0.00 0.00 33 1012.7
20260505083801 60 266 0.0 0.0 0.00 0.00 0.00 33 1013.1
20260505083329 60 266 0.0 0.0 0.00 0.00 0.00 32 1013.3
20260505082837 60 275 0.0 1.7 0.00 0.00 0.00 32 1013.5
20260505082305 60 267 0.0 2.6 0.00 0.00 0.00 32 1013.3
20260505081807 60 276 0.0 0.9 0.00 0.00 0.00 32 1013.3
20260505081344 60 250 0.0 0.0 0.00 0.00 0.00 31 1013.3
20260505080818 61 247 0.0 0.9 0.00 0.00 0.00 31 1013.3
20260505080330 61 256 0.0 1.7 0.00 0.00 0.00 31 1013.2
20260505075845 61 242 0.0 1.7 0.00 0.00 0.00 31 1013.1
20260505075337 61 266 0.9 4.3 0.00 0.00 0.00 31 1013.3
20260505074804 61 275 0.0 0.0 0.00 0.00 0.00 31 1013.2
20260505074344 61 256 1.7 7.0 0.00 0.00 0.00 31 1013.1
20260505073832 61 254 0.9 6.1 0.00 0.00 0.00 30 1012.9
20260505073346 62 239 2.6 10.4 0.00 0.00 0.00 30 1013.0
20260505072817 62 237 1.7 11.3 0.00 0.00 0.00 30 1013.0
20260505072307 62 234 5.2 13.9 0.00 0.00 0.00 30 1013.1
20260505071835 62 237 7.8 15.6 0.00 0.00 0.00 30 1013.0
20260505071318 62 236 5.2 13.9 0.00 0.00 0.00 29 1013.1
20260505070811 62 240 2.6 7.0 0.00 0.00 0.00 29 1013.2
20260505070303 62 234 2.6 7.8 0.00 0.00 0.00 29 1013.2
20260505065828 62 240 0.9 6.1 0.00 0.00 0.00 28 1012.8
20260505065312 63 244 0.0 0.9 0.00 0.00 0.00 28 1012.8
20260505064836 63 256 3.5 11.3 0.00 0.00 0.00 27 1012.7
20260505064301 63 235 0.9 5.2 0.00 0.00 0.00 27 1012.6
20260505063831 63 249 0.0 7.0 0.00 0.00 0.00 27 1012.6
20260505063327 63 232 0.9 4.3 0.00 0.00 0.00 27 1012.4
20260505062842 63 255 0.9 4.3 0.00 0.00 0.00 27 1012.3
20260505062322 63 227 0.9 3.5 0.00 0.00 0.00 26 1012.4
20260505061835 63 238 0.0 0.9 0.00 0.00 0.00 26 1012.9
20260505061325 64 234 1.7 9.6 0.00 0.00 0.00 26 1013.0
20260505060813 64 239 0.0 6.1 0.00 0.00 0.00 25 1013.0
20260505060302 64 240 1.7 3.5 0.00 0.00 0.00 25 1013.0
20260505055823 64 217 0.9 4.3 0.00 0.00 0.00 25 1012.7
20260505055323 64 234 1.7 6.1 0.00 0.00 0.00 25 1012.7
20260505054847 64 232 0.9 2.6 0.00 0.00 0.00 24 1012.6
20260505054302 65 245 0.9 6.1 0.00 0.00 0.00 24 1012.6
20260505053802 65 240 2.6 8.7 0.00 0.00 0.00 24 1012.5
20260505053305 65 243 2.6 6.1 0.00 0.00 0.00 24 1012.4
20260505052824 65 249 2.6 7.8 0.00 0.00 0.00 24 1012.4
20260505052341 65 230 2.6 7.0 0.00 0.00 0.00 24 1012.3
20260505051840 65 242 0.9 2.6 0.00 0.00 0.00 24 1012.3
20260505051338 65 247 0.0 2.6 0.00 0.00 0.00 23 1012.2
20260505050813 65 234 1.7 7.0 0.00 0.00 0.00 23 1012.2
20260505050340 65 253 0.9 3.5 0.00 0.00 0.00 23 1012.4
20260505041336 66 235 0.0 1.7 0.00 0.00 0.00 23 1012.2
20260505040820 66 244 0.0 0.0 0.00 0.00 0.00 23 1012.2
20260505040304 66 238 0.9 2.6 0.00 0.00 0.00 23 1012.2
20260505035826 67 268 0.0 1.7 0.00 0.00 0.00 23 1012.2
20260505035342 67 267 0.0 0.0 0.00 0.00 0.00 23 1012.2
20260505034823 67 253 0.0 0.9 0.00 0.00 0.00 23 1012.3
20260505034321 66 271 0.9 4.3 0.00 0.00 0.00 23 1012.2
20260505033816 67 274 0.0 0.0 0.00 0.00 0.00 23 1012.0
20260505033344 67 277 0.0 0.0 0.00 0.00 0.00 23 1011.9
20260505032846 67 278 0.0 0.0 0.00 0.00 0.00 22 1012.0
20260505032328 67 272 0.0 0.0 0.00 0.00 0.00 22 1011.9
20260505031824 67 258 0.0 1.7 0.00 0.00 0.00 22 1011.8
20260505031346 68 265 0.9 5.2 0.00 0.00 0.00 22 1011.7
20260505030839 68 251 0.0 0.9 0.00 0.00 0.00 21 1011.6
20260505030338 68 261 0.0 1.7 0.00 0.00 0.00 21 1011.5
20260505025830 68 258 3.5 12.2 0.00 0.00 0.00 20 1011.4
20260505025305 68 241 1.7 9.6 0.00 0.00 0.00 20 1011.4
20260505024832 69 262 0.9 2.6 0.00 0.00 0.00 20 1011.3
20260505024342 69 257 1.7 4.3 0.00 0.00 0.00 20 1011.3
20260505023908 69 257 0.0 0.0 0.00 0.00 0.00 20 1011.3
20260505023336 69 256 0.9 5.2 0.00 0.00 0.00 20 1011.2
20260505022826 69 264 0.9 7.0 0.00 0.00 0.00 19 1011.1
20260505022332 69 262 2.6 13.0 0.00 0.00 0.00 19 1011.1
20260505021839 69 256 1.7 3.5 0.00 0.00 0.00 19 1011.1
20260505021337 70 259 2.6 9.6 0.00 0.00 0.00 19 1011.0
20260505020817 70 261 1.7 11.3 0.00 0.00 0.00 19 1010.9
20260505020346 70 241 1.7 5.2 0.00 0.00 0.00 19 1010.8
20260505015824 70 261 0.9 8.7 0.00 0.00 0.00 19 1010.8
20260505015339 70 245 0.9 6.1 0.00 0.00 0.00 19 1010.7
20260505014815 70 248 0.9 3.5 0.00 0.00 0.00 20 1010.8
20260505014337 70 257 0.9 4.3 0.00 0.00 0.00 19 1010.7
20260505013816 70 251 0.9 4.3 0.00 0.00 0.00 19 1010.6
20260505013344 70 264 0.0 1.7 0.00 0.00 0.00 19 1010.5
20260505012819 70 239 0.0 1.7 0.00 0.00 0.00 19 1010.5
20260505012314 70 279 0.0 2.6 0.00 0.00 0.00 19 1010.4
20260505011801 71 248 0.9 4.3 0.00 0.00 0.00 18 1010.4
20260505011321 71 269 0.9 2.6 0.00 0.00 0.00 18 1010.4
20260505010826 71 256 1.7 7.8 0.00 0.00 0.00 18 1010.4
20260505010311 71 263 0.0 0.9 0.00 0.00 0.00 18 1010.4
20260505005801 71 261 0.9 7.0 0.00 0.00 0.00 17 1010.4
20260505005303 71 248 0.9 5.2 0.00 0.00 0.00 17 1010.4